sat.trackr.live / text

‹ back to catalog

GSAT-14

NORAD 39498 · 2014-001A

PAYLOAD ACTIVE UNKNOWN

§ Identity

Operator
Country
IND
Launch date
2014-01-05
Launch site
SRILR
Launch vehicle
Mass (kg)
RCS (m²)
4.83

Purposes: comms

External: N2YO · Heavens-Above · Gunter

§ Orbital elements

Epoch: 2026-09-20T00:12:21.586752Z

Period
1,436.08 min
Inclination
0.0178°
Eccentricity
0.0005277
Mean motion
1.00272712 rev/d
Perigee alt
35,764.1 km
Apogee alt
35,808.6 km
Semi-major
42,164.5 km
B*
0.0000e+0
RAAN
201.5857°
Arg perigee
17.6675°
Mean anomaly
216.7606°
Rev number
4,632

§ Raw data

GSAT-141 39498U 14001A   26263.00858318 -.00000082  00000+0  00000+0 0  99902 39498   0.0178 201.5857 0005277  17.6675 216.7606  1.00272712 46327

JSON: /api/v1/satellites/39498 · /tle

For live sub-satellite position, see the globe view (requires WebGL).

§ Visibility from observer

Set your observer location to see the next 7 days of passes ≥ 10°. The values pass through the URL so the page stays shareable.

No JS? Fill the form by hand. The geolocation button needs JavaScript.